Weather History for KSAT - August, 2013

Change the Weather History Date:

Saturday, August 31, 2013

  Actual Average Record
Temperature  
Mean Temperature 90 °F 84 °F  
Max Temperature 102 °F 94 °F 103 °F (1954)
Min Temperature 78 °F 73 °F 58 °F (1915)
Degree Days  
Heating Degree Days 0 0  
Month to date heating degree days 0 0  
Since 1 June heating degree days 0 0  
Since 1 July heating degree days 0 0  
Cooling Degree Days 25 19  
Month to date cooling degree days 739 631  
Year to date cooling degree days 2593 2391  
Since 1 June cooling degree days 1976 1762  
Growing Degree Days 40 (Base 50)    
Moisture  
Dew Point 67 °F    
Average Humidity 53    
Maximum Humidity 74    
Minimum Humidity 31    
Precipitation  
Precipitation 0.00 in 0.10 in 3.20 in (1892)
Month to date precipitation 0.85 2.09  
Year to date precipitation 23.44 20.94  
Snow  
Snow 0.00 in - - ()
Month to date snowfall 0.0  
Since 1 June snowfall 0.0  
Since 1 July snowfall 0.0  
Snow Depth 0.00 in    
Sea Level Pressure  
Sea Level Pressure 29.86 in    
Wind  
Wind Speed 8 mph (South)    
Max Wind Speed 16 mph    
Max Gust Speed 22 mph    
Visibility 10 miles    
Events      
T = Trace of Precipitation, MM = Missing Value Source: NWS Daily Summary

Daily Weather History Graph

Daily Weather History Graph

Search for Another Location

Airport or City:

Trip Planner

Search our weather history database for the weather conditions in past years. The results will help you decide how hot, cold, wet, or windy it might be!

Date:

Astronomy

Aug. 31, 2013 Rise Set
Actual Time 7:10 AM CDT 7:56 PM CDT
Civil Twilight 6:46 AM CDT 8:21 PM CDT
Nautical Twilight 6:18 AM CDT 8:49 PM CDT
Astronomical Twilight 5:48 AM CDT 9:18 PM CDT
Moon 2:53 AM CDT (8/31) 4:44 PM CDT (8/31)
Length of Visible Light 13h 34m
Length of Day
12h 45m
Waning Crescent, 21% of the Moon is Illuminated
Aug 31
Waning Crescent
Sep 5
New
Sep 12
First Quarter
Sep 19
Full
Sep 26
Last Quarter

Hourly Weather History & Observations

Time (CDT) Temp. Heat Index Dew Point Humidity Pressure Visibility Wind Dir Wind Speed Gust Speed Precip Events Conditions
12:51 AM 84.9 °F 87.6 °F 66.9 °F 55% 29.88 in 10.0 mi South 8.1 mph - N/A   Clear
1:51 AM 84.0 °F 87.0 °F 68.0 °F 58% 29.88 in 10.0 mi South 6.9 mph - N/A   Clear
2:51 AM 82.0 °F 84.9 °F 68.0 °F 62% 29.88 in 10.0 mi South 4.6 mph - N/A   Clear
3:51 AM 81.0 °F 84.1 °F 69.1 °F 67% 29.89 in 10.0 mi South 4.6 mph - N/A   Clear
4:51 AM 80.1 °F 82.9 °F 69.1 °F 69% 29.89 in 10.0 mi Calm Calm - N/A   Clear
5:51 AM 79.0 °F - 70.0 °F 74% 29.89 in 10.0 mi South 4.6 mph - N/A   Clear
6:51 AM 79.0 °F - 70.0 °F 74% 29.90 in 10.0 mi WSW 3.5 mph - N/A   Clear
7:51 AM 80.1 °F 83.2 °F 70.0 °F 71% 29.91 in 10.0 mi WSW 3.5 mph - N/A   Scattered Clouds
8:51 AM 82.0 °F 85.9 °F 70.0 °F 67% 29.91 in 10.0 mi SSW 4.6 mph - N/A   Clear
9:51 AM 87.1 °F 92.0 °F 70.0 °F 57% 29.92 in 10.0 mi SSW 4.6 mph - N/A   Clear
10:51 AM 90.0 °F 94.5 °F 69.1 °F 50% 29.92 in 10.0 mi SSW 9.2 mph - N/A   Scattered Clouds
11:51 AM 93.9 °F 97.5 °F 66.9 °F 41% 29.91 in 10.0 mi Variable 5.8 mph - N/A   Scattered Clouds
12:51 PM 95.0 °F 99.0 °F 66.9 °F 40% 29.88 in 10.0 mi SSW 4.6 mph - N/A   Scattered Clouds
1:51 PM 98.1 °F 101.8 °F 66.0 °F 35% 29.86 in 10.0 mi SE 10.4 mph - N/A   Partly Cloudy
2:51 PM 98.1 °F 101.2 °F 64.9 °F 34% 29.84 in 10.0 mi East 10.4 mph - N/A   Scattered Clouds
3:51 PM 100.0 °F 103.0 °F 64.0 °F 31% 29.81 in 10.0 mi SSE 8.1 mph - N/A   Scattered Clouds
4:51 PM 99.0 °F 102.3 °F 64.9 °F 33% 29.79 in 10.0 mi East 6.9 mph - N/A   Scattered Clouds
5:51 PM 98.1 °F 100.7 °F 64.0 °F 33% 29.79 in 10.0 mi SSE 4.6 mph - N/A   Partly Cloudy
6:51 PM 98.1 °F 100.7 °F 64.0 °F 33% 29.78 in 10.0 mi South 11.5 mph - N/A   Partly Cloudy
7:51 PM 93.9 °F 96.1 °F 64.9 °F 38% 29.79 in 10.0 mi SE 16.1 mph - N/A   Clear
8:51 PM 91.9 °F 95.4 °F 66.9 °F 44% 29.81 in 10.0 mi SSE 13.8 mph - N/A   Clear
9:51 PM 90.0 °F 92.4 °F 66.0 °F 45% 29.82 in 10.0 mi South 9.2 mph - N/A   Clear
10:51 PM 88.0 °F 90.3 °F 66.0 °F 48% 29.83 in 10.0 mi SSE 16.1 mph 21.9 mph N/A   Partly Cloudy
11:51 PM 84.9 °F 88.2 °F 68.0 °F 57% 29.84 in 10.0 mi SSE 9.2 mph - N/A   Partly Cloudy